Overview Statistics Trail Chart Weather Telemetry Raw packets
 

This is the latest recevied weather packets stored in our database for station/object KE8WMS. If no packets are shown the sender has not sent any weather packets the latest 10 day(s).

<< 85 86 87 88 89 90 91 >>
Time Temp. Humidity Pressure Rain* Wind** Luminosity Snow
1777206189 7.78° C 98% 1017.2 hPa 0 mm - 44 W/m² -
1777205885 7.78° C 97% 1017.3 hPa 0 mm - 29 W/m² -
1777205581 7.78° C 97% 1017.3 hPa 0 mm - 33 W/m² -
1777205278 7.78° C 98% 1017.2 hPa 0 mm - 37 W/m² -
1777204974 7.78° C 97% 1017.2 hPa 0 mm - 37 W/m² -
1777204669 7.78° C 97% 1017.2 hPa 0 mm - 29 W/m² -
1777204364 7.78° C 97% 1017 hPa 0 mm - 24 W/m² -
1777204062 7.78° C 97% 1017 hPa 0 mm - 23 W/m² -
1777203762 7.78° C 97% 1016.9 hPa 0 mm - 33 W/m² -
1777203457 7.78° C 97% 1016.8 hPa 0 mm - 21 W/m² -
1777203153 7.78° C 97% 1016.6 hPa 0 mm - 26 W/m² -
1777202850 7.78° C 97% 1016.7 hPa 0 mm - 24 W/m² -
1777202548 7.78° C 97% 1016.4 hPa 0 mm - 18 W/m² -
1777202244 7.78° C 97% 1016.4 hPa 0 mm - 12 W/m² -
1777201940 7.78° C 96% 1016.3 hPa 0 mm - 7 W/m² -
1777201636 7.78° C 96% 1016.2 hPa 0 mm - 7 W/m² -
1777201332 7.78° C 96% 1016.1 hPa 0 mm - 6 W/m² -
1777201027 7.78° C 95% 1016.1 hPa 0 mm - 9 W/m² -
1777200725 7.78° C 96% 1015.7 hPa 0 mm - 8 W/m² -
1777200424 7.78° C 96% 1015.6 hPa 0 mm - 6 W/m² -
1777200121 7.78° C 96% 1015.7 hPa 0 mm - 4 W/m² -
1777199817 7.78° C 96% 1015.5 hPa 0 mm - 2 W/m² -
1777199518 7.78° C 96% 1016 hPa 0 mm - 2 W/m² -
1777199217 7.78° C 96% 1015.5 hPa 0 mm - 1 W/m² -
1777198916 7.78° C 96% 1015.6 hPa 0 mm - 0 W/m² -

* Rain latest hour (hover to see other rain measurements)
** Current wind speed in m/s (hover to see current wind gust speed)